Time,TemperatureF,DewpointF,PressureIn,WindDirection,WindDirectionDegrees,WindSpeedMPH,WindSpeedGustMPH,Humidity,HourlyPrecipIn,Conditions,Clouds,dailyrainin,SoftwareType,DateUTC
2013-01-10 00:23:00,43.0,32.0,30.09,NNW,343,6.0,16.0,65,-99.99,,,-99.99,,2013-01-10 05:23:00,
2013-01-10 00:33:00,43.0,32.0,30.09,NNW,343,6.0,16.0,65,-99.99,,,-99.99,,2013-01-10 05:33:00,
2013-01-10 00:43:00,43.0,32.0,30.09,NNW,343,6.0,16.0,65,-99.99,,,-99.99,,2013-01-10 05:43:00,
2013-01-10 00:52:00,43.0,32.0,30.09,NNW,343,6.0,16.0,65,-99.99,,,-99.99,,2013-01-10 05:52:00,
2013-01-10 01:22:00,39.0,33.0,30.13,North,357,8.0,13.0,80,-99.99,,,-99.99,,2013-01-10 06:22:00,
2013-01-10 01:32:00,39.0,33.0,30.13,North,357,8.0,13.0,80,-99.99,,,-99.99,,2013-01-10 06:32:00,
2013-01-10 01:42:00,39.0,33.0,30.13,North,357,8.0,13.0,80,-99.99,,,-99.99,,2013-01-10 06:42:00,
2013-01-10 01:52:00,39.0,33.0,30.13,North,357,8.0,13.0,80,-99.99,,,-99.99,,2013-01-10 06:52:00,
2013-01-10 03:22:00,38.0,30.0,30.17,NNW,337,7.0,20.0,72,-99.99,,,-99.99,,2013-01-10 08:22:00,
2013-01-10 03:32:00,37.0,29.0,30.18,NNW,333,10.0,10.0,74,-99.99,,,-99.99,,2013-01-10 08:32:00,
2013-01-10 03:42:00,37.0,29.0,30.18,NNW,333,10.0,10.0,74,-99.99,,,-99.99,,2013-01-10 08:42:00,
2013-01-10 03:52:00,37.0,29.0,30.18,NNW,333,10.0,10.0,74,-99.99,,,-99.99,,2013-01-10 08:52:00,
2013-01-10 04:02:00,37.0,28.0,30.18,WNW,286,7.0,16.0,71,-99.99,,,-99.99,,2013-01-10 09:02:00,
2013-01-10 04:12:00,37.0,28.0,30.18,WNW,286,7.0,16.0,71,-99.99,,,-99.99,,2013-01-10 09:12:00,
2013-01-10 04:22:00,37.0,28.0,30.18,WNW,286,7.0,16.0,71,-99.99,,,-99.99,,2013-01-10 09:22:00,
2013-01-10 04:32:00,37.0,28.0,30.18,WNW,286,7.0,16.0,71,-99.99,,,-99.99,,2013-01-10 09:32:00,
2013-01-10 06:03:00,36.0,30.0,30.25,NW,319,3.0,10.0,78,-99.99,,,-99.99,,2013-01-10 11:03:00,
2013-01-10 06:12:00,36.0,30.0,30.25,NW,319,3.0,10.0,78,-99.99,,,-99.99,,2013-01-10 11:12:00,
2013-01-10 06:22:00,35.0,30.0,30.26,West,279,4.0,9.0,81,-99.99,,,-99.99,,2013-01-10 11:22:00,
2013-01-10 06:33:00,35.0,28.0,30.27,NW,326,3.0,5.0,76,-99.99,,,-99.99,,2013-01-10 11:33:00,
2013-01-10 06:43:00,35.0,28.0,30.27,NW,326,3.0,5.0,76,-99.99,,,-99.99,,2013-01-10 11:43:00,
2013-01-10 06:52:00,35.0,28.0,30.27,NW,326,3.0,5.0,76,-99.99,,,-99.99,,2013-01-10 11:52:00,
2013-01-10 07:03:00,35.0,28.0,30.27,NW,326,3.0,5.0,76,-99.99,,,-99.99,,2013-01-10 12:03:00,
2013-01-10 07:12:00,35.0,28.0,30.27,NW,326,3.0,5.0,76,-99.99,,,-99.99,,2013-01-10 12:12:00,
2013-01-10 07:33:00,34.0,27.0,30.31,North,355,2.0,4.0,76,-99.99,,,-99.99,,2013-01-10 12:33:00,
2013-01-10 07:43:00,34.0,27.0,30.31,North,355,2.0,4.0,76,-99.99,,,-99.99,,2013-01-10 12:43:00,
2013-01-10 07:53:00,34.0,27.0,30.31,North,355,2.0,4.0,76,-99.99,,,-99.99,,2013-01-10 12:53:00,
2013-01-10 08:02:00,33.0,26.0,30.31,SW,225,0.0,4.0,76,-99.99,,,-99.99,,2013-01-10 13:02:00,
2013-01-10 08:12:00,33.0,26.0,30.31,SW,225,0.0,4.0,76,-99.99,,,-99.99,,2013-01-10 13:12:00,
2013-01-10 08:22:00,32.0,28.0,30.32,NNW,335,3.0,4.0,86,-99.99,,,-99.99,,2013-01-10 13:22:00,
2013-01-10 08:32:00,33.0,29.0,30.33,NNW,328,5.0,7.0,85,-99.99,,,-99.99,,2013-01-10 13:32:00,
2013-01-10 08:42:00,33.0,29.0,30.33,NNW,328,5.0,7.0,85,-99.99,,,-99.99,,2013-01-10 13:42:00,
2013-01-10 08:52:00,33.0,29.0,30.33,NNW,328,5.0,7.0,85,-99.99,,,-99.99,,2013-01-10 13:52:00,
2013-01-10 09:02:00,33.0,29.0,30.33,NNW,328,5.0,7.0,85,-99.99,,,-99.99,,2013-01-10 14:02:00,
2013-01-10 09:12:00,33.0,29.0,30.33,NNW,328,5.0,7.0,85,-99.99,,,-99.99,,2013-01-10 14:12:00,
2013-01-10 09:33:00,35.0,30.0,30.36,NW,315,7.0,13.0,82,-99.99,,,-99.99,,2013-01-10 14:33:00,
2013-01-10 09:43:00,35.0,30.0,30.36,NW,315,7.0,13.0,82,-99.99,,,-99.99,,2013-01-10 14:43:00,
2013-01-10 09:53:00,35.0,30.0,30.36,NW,315,7.0,13.0,82,-99.99,,,-99.99,,2013-01-10 14:53:00,
2013-01-10 10:03:00,35.0,30.0,30.36,NW,315,7.0,13.0,82,-99.99,,,-99.99,,2013-01-10 15:03:00,
2013-01-10 10:12:00,35.0,30.0,30.36,NW,315,7.0,13.0,82,-99.99,,,-99.99,,2013-01-10 15:12:00,
2013-01-10 10:23:00,37.0,28.0,30.40,North,5,2.0,7.0,69,-99.99,,,-99.99,,2013-01-10 15:23:00,
2013-01-10 10:33:00,38.0,29.0,30.39,NW,319,8.0,9.0,70,-99.99,,,-99.99,,2013-01-10 15:33:00,
2013-01-10 10:43:00,38.0,29.0,30.39,NW,319,8.0,9.0,70,-99.99,,,-99.99,,2013-01-10 15:43:00,
2013-01-10 10:53:00,38.0,29.0,30.39,NW,319,8.0,9.0,70,-99.99,,,-99.99,,2013-01-10 15:53:00,
2013-01-10 11:03:00,38.0,29.0,30.39,NW,319,8.0,9.0,70,-99.99,,,-99.99,,2013-01-10 16:03:00,
2013-01-10 11:13:00,38.0,29.0,30.39,NW,319,8.0,9.0,70,-99.99,,,-99.99,,2013-01-10 16:13:00,
2013-01-10 11:23:00,39.0,28.0,30.38,North,0,6.0,9.0,65,-99.99,,,-99.99,,2013-01-10 16:23:00,
2013-01-10 11:33:00,39.0,28.0,30.38,North,0,6.0,9.0,65,-99.99,,,-99.99,,2013-01-10 16:33:00,
2013-01-10 11:43:00,39.0,28.0,30.38,North,0,6.0,9.0,65,-99.99,,,-99.99,,2013-01-10 16:43:00,
2013-01-10 11:53:00,39.0,28.0,30.38,North,0,6.0,9.0,65,-99.99,,,-99.99,,2013-01-10 16:53:00,
2013-01-10 12:03:00,40.0,31.0,30.38,NNE,20,8.0,13.0,69,-99.99,,,-99.99,,2013-01-10 17:03:00,
2013-01-10 12:12:00,40.0,31.0,30.38,NNE,20,8.0,13.0,69,-99.99,,,-99.99,,2013-01-10 17:12:00,
2013-01-10 12:23:00,40.0,31.0,30.38,NNE,20,8.0,13.0,69,-99.99,,,-99.99,,2013-01-10 17:23:00,
2013-01-10 12:33:00,40.0,31.0,30.38,NNE,20,8.0,13.0,69,-99.99,,,-99.99,,2013-01-10 17:33:00,
2013-01-10 13:44:00,42.0,30.0,30.38,WNW,292,6.0,9.0,61,-99.99,,,-99.99,,2013-01-10 18:44:00,
2013-01-10 13:53:00,42.0,30.0,30.38,WNW,292,6.0,9.0,61,-99.99,,,-99.99,,2013-01-10 18:53:00,
2013-01-10 14:03:00,42.0,30.0,30.38,WNW,292,6.0,9.0,61,-99.99,,,-99.99,,2013-01-10 19:03:00,
2013-01-10 14:13:00,42.0,29.0,30.39,NNW,337,9.0,9.0,60,-99.99,,,-99.99,,2013-01-10 19:13:00,
2013-01-10 14:23:00,42.0,29.0,30.39,NNW,337,9.0,9.0,60,-99.99,,,-99.99,,2013-01-10 19:23:00,
2013-01-10 14:33:00,42.0,29.0,30.39,NNW,337,9.0,9.0,60,-99.99,,,-99.99,,2013-01-10 19:33:00,
2013-01-10 14:40:00,41.0,29.0,30.39,West,279,6.0,10.0,61,-99.99,,,-99.99,,2013-01-10 19:40:00,
2013-01-10 14:43:00,42.0,29.0,30.39,NNW,337,9.0,9.0,60,-99.99,,,-99.99,,2013-01-10 19:43:00,
2013-01-10 14:53:00,42.0,29.0,30.39,NNW,337,9.0,9.0,60,-99.99,,,-99.99,,2013-01-10 19:53:00,
2013-01-10 15:03:00,41.0,29.0,30.39,West,279,6.0,10.0,61,-99.99,,,-99.99,,2013-01-10 20:03:00,
2013-01-10 15:13:00,41.0,29.0,30.39,West,279,6.0,10.0,61,-99.99,,,-99.99,,2013-01-10 20:13:00,
2013-01-10 15:24:00,41.0,29.0,30.39,West,279,6.0,10.0,61,-99.99,,,-99.99,,2013-01-10 20:24:00,
2013-01-10 15:33:00,41.0,29.0,30.39,West,279,6.0,10.0,61,-99.99,,,-99.99,,2013-01-10 20:33:00,
2013-01-10 15:53:00,40.0,28.0,30.40,North,11,2.0,9.0,63,-99.99,,,-99.99,,2013-01-10 20:53:00,
2013-01-10 16:04:00,40.0,29.0,30.41,North,0,3.0,6.0,64,-99.99,,,-99.99,,2013-01-10 21:04:00,
2013-01-10 16:13:00,39.0,29.0,30.41,NE,45,2.0,4.0,68,-99.99,,,-99.99,,2013-01-10 21:13:00,
2013-01-10 16:23:00,39.0,29.0,30.41,NE,45,2.0,4.0,68,-99.99,,,-99.99,,2013-01-10 21:23:00,
2013-01-10 16:33:00,39.0,29.0,30.41,NE,45,2.0,4.0,68,-99.99,,,-99.99,,2013-01-10 21:33:00,
2013-01-10 16:43:00,39.0,29.0,30.41,NE,45,2.0,4.0,68,-99.99,,,-99.99,,2013-01-10 21:43:00,
2013-01-10 16:53:00,38.0,29.0,30.40,NNW,337,1.0,4.0,69,-99.99,,,-99.99,,2013-01-10 21:53:00,
2013-01-10 17:03:00,37.0,30.0,30.40,North,353,2.0,3.0,75,-99.99,,,-99.99,,2013-01-10 22:03:00,
2013-01-10 17:13:00,36.0,29.0,30.42,NW,319,1.0,2.0,74,-99.99,,,-99.99,,2013-01-10 22:13:00,
2013-01-10 17:26:00,36.0,29.0,30.42,NW,319,1.0,2.0,74,-99.99,,,-99.99,,2013-01-10 22:26:00,
2013-01-10 17:33:00,36.0,29.0,30.42,NW,319,1.0,2.0,74,-99.99,,,-99.99,,2013-01-10 22:33:00,
2013-01-10 17:41:00,33.0,27.0,30.42,SE,135,0.0,1.0,77,-99.99,,,-99.99,,2013-01-10 22:41:00,
2013-01-10 17:43:00,36.0,29.0,30.42,NW,319,1.0,2.0,74,-99.99,,,-99.99,,2013-01-10 22:43:00,
2013-01-10 18:03:00,33.0,27.0,30.42,SE,135,0.0,1.0,77,-99.99,,,-99.99,,2013-01-10 23:03:00,
2013-01-10 18:13:00,33.0,27.0,30.42,SE,135,0.0,1.0,77,-99.99,,,-99.99,,2013-01-10 23:13:00,
2013-01-10 18:23:00,33.0,27.0,30.42,SE,135,0.0,1.0,77,-99.99,,,-99.99,,2013-01-10 23:23:00,
2013-01-10 18:33:00,33.0,27.0,30.42,SE,135,0.0,1.0,77,-99.99,,,-99.99,,2013-01-10 23:33:00,
2013-01-10 19:13:00,28.0,26.0,30.45,East,87,0.0,0.0,92,-99.99,,,-99.99,,2013-01-11 00:13:00,
2013-01-10 19:23:00,28.0,26.0,30.45,East,87,0.0,0.0,92,-99.99,,,-99.99,,2013-01-11 00:23:00,
2013-01-10 19:33:00,28.0,26.0,30.45,East,87,0.0,0.0,92,-99.99,,,-99.99,,2013-01-11 00:33:00,
2013-01-10 19:43:00,28.0,26.0,30.45,East,87,0.0,0.0,92,-99.99,,,-99.99,,2013-01-11 00:43:00,
2013-01-10 19:53:00,28.0,27.0,30.46,SE,135,0.0,1.0,97,-99.99,,,-99.99,,2013-01-11 00:53:00,
2013-01-10 20:03:00,28.0,27.0,30.46,SE,135,0.0,1.0,97,-99.99,,,-99.99,,2013-01-11 01:03:00,
2013-01-10 20:13:00,26.0,26.0,30.45,SE,135,0.0,1.0,99,-99.99,,,-99.99,,2013-01-11 01:13:00,
2013-01-10 20:23:00,26.0,26.0,30.45,SE,135,0.0,1.0,99,-99.99,,,-99.99,,2013-01-11 01:23:00,
2013-01-10 20:34:00,26.0,26.0,30.45,SE,135,0.0,1.0,99,-99.99,,,-99.99,,2013-01-11 01:34:00,
2013-01-10 20:42:00,25.0,25.0,30.43,SE,135,0.0,0.0,100,-99.99,,,-99.99,,2013-01-11 01:42:00,
2013-01-10 20:43:00,26.0,26.0,30.45,SE,135,0.0,1.0,99,-99.99,,,-99.99,,2013-01-11 01:43:00,
2013-01-10 20:53:00,26.0,26.0,30.45,SE,135,0.0,1.0,99,-99.99,,,-99.99,,2013-01-11 01:53:00,
2013-01-10 21:03:00,25.0,25.0,30.43,SE,135,0.0,0.0,100,-99.99,,,-99.99,,2013-01-11 02:03:00,
2013-01-10 21:13:00,25.0,25.0,30.43,SE,135,0.0,0.0,100,-99.99,,,-99.99,,2013-01-11 02:13:00,
2013-01-10 21:23:00,25.0,25.0,30.43,SE,135,0.0,0.0,100,-99.99,,,-99.99,,2013-01-11 02:23:00,
2013-01-10 21:33:00,25.0,25.0,30.43,SE,135,0.0,0.0,100,-99.99,,,-99.99,,2013-01-11 02:33:00,
2013-01-10 22:02:00,24.0,-41.0,30.45,SE,135,0.0,1.0,4,-99.99,,,-99.99,,2013-01-11 03:02:00,
2013-01-10 22:23:00,24.0,-41.0,30.45,SE,135,0.0,1.0,4,-99.99,,,-99.99,,2013-01-11 03:23:00,
2013-01-10 22:33:00,24.0,-41.0,30.45,SE,135,0.0,1.0,4,-99.99,,,-99.99,,2013-01-11 03:33:00,
2013-01-10 22:43:00,24.0,-41.0,30.45,SE,135,0.0,1.0,4,-99.99,,,-99.99,,2013-01-11 03:43:00,
2013-01-10 22:53:00,24.0,-41.0,30.45,SE,135,0.0,1.0,4,-99.99,,,-99.99,,2013-01-11 03:53:00,
2013-01-10 23:43:00,22.0,22.0,30.44,SE,135,1.0,1.0,100,-99.99,,,-99.99,,2013-01-11 04:43:00,